contact:dominique.lefevre@mio.osupytheas.fr, maurice.libes@osupytheas.fr
Project:EMSO Ligure-ouest http://www.emso-fr.org/EMSO-France
Sensor Aquadopp, line 04 Serial AQD8517 
DOI : "https://doi.org/10.17882/74513; https://doi.org/10.17882/83244" 
Title:EMSO Ligure Ouest : Data ligne ALBATROSS capteur AQUADOPP - deploiement 2021
Id,Date,Profondeur,Latitude,Longitude,X_East,Y_North,Z_Up,Amplitude_X,Amplitude_Y,Amplitude_Z,Batterie,SoundSpeed,Heading,Pitch,Roll,Pressure,Temperature,Speed,Direction
, , m, degrees North, degrees East, m.s-1, m.s-1,m.s-1, 1, 1, 1, Volt, m.s-1, degree, degree, degree, dbar, degree_C, m.s-1, degree
04,2021-12-25T21:30:00,1000.0,42.79,6.0312,0.007,0.01,0.013,52.0,53.0,49.0,12.6,1504.7,312.6,-0.6,-0.3,967.605,13.29,0.012,35.0
04,2021-12-25T22:00:00,1000.0,42.79,6.0312,-0.009,0.01,0.008,46.0,52.0,49.0,12.6,1504.7,310.7,-0.5,-0.3,967.615,13.28,0.013,318.0
04,2021-12-25T22:30:00,1000.0,42.79,6.0312,-0.014,0.001,0.023,50.0,52.0,50.0,12.6,1504.7,299.2,-0.5,-0.3,967.6,13.28,0.014,274.1
04,2021-12-25T23:00:00,1000.0,42.79,6.0312,-0.012,-0.008,0.008,49.0,52.0,50.0,12.6,1504.6,295.4,-0.6,-0.3,967.635,13.27,0.014,236.3
04,2021-12-25T23:30:00,1000.0,42.79,6.0312,-0.022,-0.02,0.008,51.0,54.0,54.0,12.6,1504.6,291.6,-0.6,-0.3,967.622,13.26,0.029,227.7
04,2021-12-26T00:00:00,1000.0,42.79,6.0312,-0.03,-0.015,0.004,50.0,52.0,50.0,12.6,1504.6,288.4,-0.5,-0.3,967.585,13.26,0.033,243.4
04,2021-12-26T00:30:00,1000.0,42.79,6.0312,-0.031,0.0,-0.016,51.0,54.0,49.0,12.6,1504.6,286.2,-0.5,-0.3,967.607,13.26,0.03,270.0
04,2021-12-26T01:00:00,1000.0,42.79,6.0312,-0.034,0.011,0.012,51.0,52.0,50.0,12.6,1504.6,293.3,-0.6,-0.3,967.596,13.27,0.035,287.9
04,2021-12-26T01:30:00,1000.0,42.79,6.0312,-0.041,0.005,0.016,50.0,51.0,49.0,12.6,1504.6,288.9,-0.6,-0.3,967.577,13.27,0.041,277.0
04,2021-12-26T02:00:00,1000.0,42.79,6.0312,-0.045,0.021,0.002,50.0,52.0,49.0,12.6,1504.6,294.2,-0.6,-0.3,967.624,13.27,0.049,295.0
04,2021-12-26T02:30:00,1000.0,42.79,6.0312,-0.043,0.0,0.008,49.0,51.0,49.0,12.6,1504.6,296.6,-0.6,-0.3,967.594,13.27,0.043,270.0
04,2021-12-26T03:00:00,1000.0,42.79,6.0312,-0.032,0.014,0.0,49.0,52.0,50.0,12.6,1504.6,289.8,-0.6,-0.3,967.579,13.26,0.034,293.6
04,2021-12-26T03:30:00,1000.0,42.79,6.0312,-0.043,0.016,0.006,49.0,51.0,49.0,12.6,1504.6,294.9,-0.6,-0.3,967.616,13.26,0.045,290.4
04,2021-12-26T04:00:00,1000.0,42.79,6.0312,-0.059,-0.002,0.009,50.0,53.0,49.0,12.6,1504.6,275.8,-0.5,-0.3,967.561,13.27,0.059,268.1
04,2021-12-26T04:30:00,1000.0,42.79,6.0312,-0.053,0.006,0.002,50.0,53.0,48.0,12.6,1504.6,280.6,-0.5,-0.3,967.571,13.27,0.053,276.5
04,2021-12-26T05:00:00,1000.0,42.79,6.0312,-0.052,0.015,0.008,50.0,52.0,49.0,12.6,1504.6,281.3,-0.5,-0.3,967.538,13.27,0.054,286.1
04,2021-12-26T05:30:00,1000.0,42.79,6.0312,-0.023,0.032,-0.005,50.0,52.0,48.0,12.6,1504.6,312.5,-0.5,-0.3,967.531,13.26,0.039,324.3
04,2021-12-26T06:00:00,1000.0,42.79,6.0312,-0.034,0.032,0.007,51.0,51.0,49.0,12.6,1504.6,296.0,-0.6,-0.3,967.556,13.26,0.046,313.3
04,2021-12-26T06:30:00,1000.0,42.79,6.0312,-0.05,0.03,-0.004,49.0,53.0,49.0,12.6,1504.6,289.6,-0.6,-0.3,967.545,13.27,0.058,301.0
04,2021-12-26T07:00:00,1000.0,42.79,6.0312,-0.032,0.031,0.0,50.0,52.0,47.0,12.6,1504.6,293.5,-0.6,-0.3,967.591,13.27,0.044,314.1
04,2021-12-26T07:30:00,1000.0,42.79,6.0312,-0.035,0.022,0.006,49.0,51.0,47.0,12.6,1504.6,287.6,-0.6,-0.3,967.569,13.27,0.041,302.2
04,2021-12-26T08:00:00,1000.0,42.79,6.0312,-0.019,0.051,0.001,50.0,52.0,49.0,12.6,1504.6,315.4,-0.6,-0.4,967.581,13.27,0.054,339.6
04,2021-12-26T08:30:00,1000.0,42.79,6.0312,-0.04,0.026,-0.007,49.0,51.0,48.0,12.6,1504.6,291.4,-0.6,-0.3,967.632,13.27,0.047,303.0
04,2021-12-26T09:00:00,1000.0,42.79,6.0312,-0.031,0.031,0.007,50.0,51.0,49.0,12.6,1504.6,312.6,-0.6,-0.4,967.631,13.27,0.043,315.0
04,2021-12-26T09:30:00,1000.0,42.79,6.0312,-0.012,0.048,-0.007,49.0,52.0,49.0,12.6,1504.6,311.6,-0.6,-0.4,967.698,13.27,0.049,346.0
04,2021-12-26T10:30:00,1000.0,42.79,6.0312,-0.015,0.04,0.002,49.0,51.0,49.0,12.6,1504.7,308.9,-0.6,-0.4,967.699,13.29,0.042,339.4
04,2021-12-26T11:00:00,1000.0,42.79,6.0312,-0.004,0.026,0.013,49.0,51.0,48.0,12.6,1504.7,308.1,-0.6,-0.3,967.74,13.29,0.026,351.3
04,2021-12-26T11:30:00,1000.0,42.79,6.0312,-0.011,0.016,0.012,50.0,51.0,50.0,12.6,1504.7,306.5,-0.6,-0.4,967.713,13.28,0.019,325.5
04,2021-12-26T12:00:00,1000.0,42.79,6.0312,-0.006,0.028,0.011,49.0,53.0,49.0,12.6,1504.7,306.3,-0.6,-0.3,967.758,13.28,0.028,347.9
04,2021-12-26T12:30:00,1000.0,42.79,6.0312,-0.019,0.028,-0.004,50.0,52.0,47.0,12.6,1504.6,304.7,-0.6,-0.3,967.732,13.27,0.033,325.8
04,2021-12-26T13:00:00,1000.0,42.79,6.0312,-0.011,0.011,-0.009,49.0,55.0,49.0,12.6,1504.6,307.9,-0.6,-0.3,967.712,13.27,0.015,315.0
04,2021-12-26T13:30:00,1000.0,42.79,6.0312,-0.013,0.017,0.007,49.0,52.0,47.0,12.6,1504.6,313.7,-0.7,-0.3,967.741,13.27,0.021,322.6
04,2021-12-26T14:00:00,1000.0,42.79,6.0312,-0.013,0.021,0.009,49.0,52.0,50.0,12.6,1504.7,315.5,-0.6,-0.3,967.737,13.28,0.024,328.2
04,2021-12-26T14:30:00,1000.0,42.79,6.0312,-0.017,0.01,0.0,50.0,50.0,48.0,12.6,1504.7,311.3,-0.6,-0.3,967.68,13.28,0.019,300.5
04,2021-12-26T15:00:00,1000.0,42.79,6.0312,-0.015,0.022,0.005,50.0,50.0,49.0,12.6,1504.6,310.8,-0.6,-0.3,967.697,13.27,0.026,325.7
04,2021-12-26T15:30:00,1000.0,42.79,6.0312,-0.009,0.024,-0.002,51.0,49.0,51.0,12.6,1504.6,313.7,-0.6,-0.3,967.695,13.27,0.025,339.4
04,2021-12-26T16:00:00,1000.0,42.79,6.0312,-0.006,0.005,0.011,49.0,54.0,48.0,12.6,1504.6,305.1,-0.6,-0.3,967.653,13.27,0.007,309.8
04,2021-12-26T16:30:00,1000.0,42.79,6.0312,-0.029,0.006,0.008,50.0,52.0,50.0,12.6,1504.6,306.8,-0.5,-0.3,967.652,13.27,0.029,281.7
04,2021-12-26T17:00:00,1000.0,42.79,6.0312,-0.022,0.009,-0.012,51.0,50.0,49.0,12.6,1504.6,303.1,-0.5,-0.3,967.623,13.27,0.023,292.2
04,2021-12-26T17:30:00,1000.0,42.79,6.0312,-0.017,0.006,0.0,50.0,52.0,51.0,12.6,1504.6,300.5,-0.5,-0.3,967.627,13.27,0.018,289.4
04,2021-12-26T18:00:00,1000.0,42.79,6.0312,-0.017,0.001,0.01,49.0,51.0,50.0,12.6,1504.6,296.3,-0.5,-0.3,967.634,13.27,0.017,273.4
04,2021-12-26T18:30:00,1000.0,42.79,6.0312,-0.031,0.0,0.013,51.0,52.0,48.0,12.6,1504.6,289.2,-0.5,-0.3,967.601,13.27,0.03,270.0
04,2021-12-26T19:00:00,1000.0,42.79,6.0312,-0.024,0.001,0.006,49.0,50.0,50.0,12.6,1504.6,278.7,-0.5,-0.3,967.591,13.27,0.024,272.4
04,2021-12-26T19:30:00,1000.0,42.79,6.0312,-0.026,0.021,0.019,49.0,51.0,50.0,12.6,1504.6,299.0,-0.5,-0.3,967.577,13.27,0.033,308.9
04,2021-12-26T20:00:00,1000.0,42.79,6.0312,-0.027,0.002,-0.005,49.0,53.0,47.0,12.6,1504.6,277.0,-0.5,-0.3,967.552,13.27,0.027,274.2
04,2021-12-26T20:30:00,1000.0,42.79,6.0312,-0.033,-0.003,0.008,48.0,50.0,46.0,12.6,1504.6,279.8,-0.5,-0.3,967.55,13.27,0.033,264.8
04,2021-12-26T21:00:00,1000.0,42.79,6.0312,-0.026,0.018,0.001,50.0,52.0,48.0,12.6,1504.6,281.5,-0.5,-0.3,967.598,13.26,0.031,304.7
